EUTELSAT 21B

Last updated on Mon Oct 14 2024 00:02:39 GMT+0000 (Coordinated Universal Time)

1 38992U 12062B 24287.26787620 .00000129 00000+0 00000+0 0 9993 2 38992 0.0713 14.5587 0002747 188.8426 296.9589 1.00273110 43696
UTC large
Height (km)
Speed (km/s)
/
Latitude / Longitude
Inclination (degrees)
Orbital Period (minutes)
Azimuth
Elevation
Range (km)
Doppler Factor

Next 0 passes for location: London (51.5072 / 0.1276)

Sorry there are no passes over London.